EJA303 KMRY-KHLN

Flight info

Callsign EJA303
Flight time 1h 58m
Altitude 39000
Route KMRY ALWYS ADMINF RUSHI MDOWS KU66I KUBOF KUMSE FETHR LRJET DIVID YERUT GELEY RW27 HLN
Aircraft C700/M-V/N

Departure

Time 2026-05-09 14:31
Airport Monterey Regional Airport (KMRY)

Arrival

Time 2026-05-09 16:29
Airport Helena Regional Airport (KHLN)
Time Latitude Longitude Altitude Speed Heading
2026-05-09 14:23 36.58869 -121.85871 170 ft 0 kts 180°
2026-05-09 14:25 36.58876 -121.85870 170 ft 3 kts 180°
2026-05-09 14:25 36.58894 -121.85870 169 ft 3 kts 180°
2026-05-09 14:26 36.58900 -121.85870 169 ft 0 kts 180°
2026-05-09 14:26 36.58898 -121.85862 169 ft 2 kts 75°
2026-05-09 14:27 36.58909 -121.85837 168 ft 7 kts 68°
2026-05-09 14:27 36.58925 -121.85789 167 ft 4 kts 74°
2026-05-09 14:27 36.58927 -121.85773 167 ft 0 kts 73°
2026-05-09 14:29 36.58931 -121.85758 166 ft 7 kts 73°
2026-05-09 14:29 36.58985 -121.85677 164 ft 15 kts 28°
2026-05-09 14:30 36.59070 -121.85585 162 ft 17 kts 73°
2026-05-09 14:30 36.59041 -121.85441 169 ft 21 kts 113°
2026-05-09 14:30 36.58914 -121.85075 197 ft 79 kts 114°
2026-05-09 14:30 36.58611 -121.84188 224 ft 141 kts 113°
2026-05-09 14:31 36.58202 -121.82932 590 ft 162 kts 113°
2026-05-09 14:31 36.57667 -121.81601 1378 ft 185 kts 118°
2026-05-09 14:31 36.57191 -121.80026 2017 ft 208 kts 87°
2026-05-09 14:31 36.57696 -121.78367 2526 ft 210 kts 47°
2026-05-09 14:32 36.58961 -121.77528 3075 ft 214 kts
2026-05-09 14:32 36.60497 -121.77901 3599 ft 244 kts 331°
2026-05-09 14:32 36.61965 -121.79140 4136 ft 266 kts 336°
2026-05-09 14:32 36.63793 -121.79415 4638 ft 270 kts 11°
2026-05-09 14:33 36.65380 -121.78337 5131 ft 257 kts 46°
2026-05-09 14:33 36.66450 -121.76596 5618 ft 253 kts 54°
2026-05-09 14:33 36.67518 -121.74859 6106 ft 258 kts 49°
2026-05-09 14:33 36.68837 -121.73290 6599 ft 260 kts 35°
2026-05-09 14:34 36.70364 -121.72118 7062 ft 262 kts 28°
2026-05-09 14:34 36.71958 -121.70989 7535 ft 265 kts 30°
2026-05-09 14:34 36.73515 -121.69745 8015 ft 266 kts 32°
2026-05-09 14:34 36.75057 -121.68455 8500 ft 268 kts 32°
2026-05-09 14:35 36.76624 -121.67178 8994 ft 271 kts 31°
2026-05-09 14:35 36.78217 -121.65897 9484 ft 274 kts 31°
2026-05-09 14:35 36.79829 -121.64593 9998 ft 277 kts 31°
2026-05-09 14:35 36.81450 -121.63276 10456 ft 279 kts 31°
2026-05-09 14:36 36.83087 -121.61945 10934 ft 281 kts 31°
2026-05-09 14:36 36.84733 -121.60610 11421 ft 283 kts 31°
2026-05-09 14:36 36.86393 -121.59261 11903 ft 285 kts 31°
2026-05-09 14:36 36.88062 -121.57902 12393 ft 287 kts 31°
2026-05-09 14:37 36.89745 -121.56535 12887 ft 291 kts 30°
2026-05-09 14:37 36.91456 -121.55144 13396 ft 295 kts 30°
2026-05-09 14:37 36.93165 -121.53752 13901 ft 299 kts 30°
2026-05-09 14:37 36.94918 -121.52324 14363 ft 301 kts 30°
2026-05-09 14:38 36.96670 -121.50894 14821 ft 301 kts 30°
2026-05-09 14:38 36.98420 -121.49467 15287 ft 300 kts 30°
2026-05-09 14:38 37.00174 -121.48036 15762 ft 301 kts 30°
2026-05-09 14:38 37.01939 -121.46595 16245 ft 304 kts 30°
2026-05-09 14:39 37.03722 -121.45140 16739 ft 307 kts 30°
2026-05-09 14:39 37.05524 -121.43666 17238 ft 310 kts 30°
2026-05-09 14:39 37.07332 -121.42187 17743 ft 311 kts 30°
2026-05-09 14:39 37.09146 -121.40701 18251 ft 312 kts 30°
2026-05-09 14:40 37.10963 -121.39213 18714 ft 312 kts 30°
2026-05-09 14:40 37.12788 -121.37720 19170 ft 314 kts 29°
2026-05-09 14:40 37.14599 -121.36234 19621 ft 316 kts 29°
2026-05-09 14:40 37.16444 -121.34721 20092 ft 318 kts 29°
2026-05-09 14:41 37.18304 -121.33195 20556 ft 321 kts 29°
2026-05-09 14:41 37.20179 -121.31655 21042 ft 323 kts 28°
2026-05-09 14:41 37.22071 -121.30100 21531 ft 326 kts 28°
2026-05-09 14:41 37.23976 -121.28533 22022 ft 329 kts 28°
2026-05-09 14:42 37.25893 -121.26956 22535 ft 330 kts 28°
2026-05-09 14:42 37.27825 -121.25366 23057 ft 333 kts 28°
2026-05-09 14:42 37.29769 -121.23762 23574 ft 334 kts 28°
2026-05-09 14:42 37.31721 -121.22152 24027 ft 338 kts 27°
2026-05-09 14:43 37.33702 -121.20525 24483 ft 342 kts 27°
2026-05-09 14:43 37.35703 -121.18873 24945 ft 346 kts 27°
2026-05-09 14:43 37.37722 -121.17201 25406 ft 348 kts 27°
2026-05-09 14:43 37.39724 -121.15545 25877 ft 350 kts 27°
2026-05-09 14:44 37.41765 -121.13858 26364 ft 351 kts 27°
2026-05-09 14:44 37.43812 -121.12166 26853 ft 352 kts 27°
2026-05-09 14:44 37.45870 -121.10462 27354 ft 356 kts 26°
2026-05-09 14:44 37.47954 -121.08736 27865 ft 359 kts 26°
2026-05-09 14:45 37.50033 -121.07010 28380 ft 363 kts 26°
2026-05-09 14:45 37.52154 -121.05250 28914 ft 366 kts 26°
2026-05-09 14:45 37.54284 -121.03482 29449 ft 368 kts 26°
2026-05-09 14:45 37.56436 -121.01693 30000 ft 371 kts 26°
2026-05-09 14:46 37.58606 -120.99889 30482 ft 374 kts 26°
2026-05-09 14:46 37.60795 -120.98068 30964 ft 377 kts 26°
2026-05-09 14:46 37.62983 -120.96245 31456 ft 379 kts 26°
2026-05-09 14:46 37.65161 -120.94429 31951 ft 380 kts 26°
2026-05-09 14:47 37.67378 -120.92571 32464 ft 382 kts 26°
2026-05-09 14:47 37.69594 -120.90714 32980 ft 383 kts 26°
2026-05-09 14:47 37.71822 -120.88849 33501 ft 385 kts 26°
2026-05-09 14:47 37.74056 -120.86977 34035 ft 386 kts 26°
2026-05-09 14:48 37.76298 -120.85094 34500 ft 386 kts 26°
2026-05-09 14:48 37.78536 -120.83215 34977 ft 386 kts 26°
2026-05-09 14:48 37.80743 -120.81360 35445 ft 385 kts 25°
2026-05-09 14:48 37.82975 -120.79482 35931 ft 384 kts 25°
2026-05-09 14:49 37.85195 -120.77614 36432 ft 381 kts 25°
2026-05-09 14:49 37.87388 -120.75766 36930 ft 378 kts 25°
2026-05-09 14:49 37.89565 -120.73931 37444 ft 374 kts 25°
2026-05-09 14:49 37.91714 -120.72118 37968 ft 368 kts 25°
2026-05-09 14:50 37.93839 -120.70324 38503 ft 362 kts 25°
2026-05-09 14:50 37.95921 -120.68565 38927 ft 359 kts 24°
2026-05-09 14:50 38.00148 -120.65010 38964 ft 374 kts 25°
2026-05-09 14:51 38.04565 -120.61264 38975 ft 389 kts 25°
2026-05-09 14:51 38.09162 -120.57402 38975 ft 403 kts 25°
2026-05-09 14:52 38.13907 -120.53392 38976 ft 417 kts 26°
2026-05-09 14:52 38.18821 -120.49240 38965 ft 429 kts 26°
2026-05-09 14:53 38.23829 -120.44994 38965 ft 433 kts 26°
2026-05-09 14:53 38.28810 -120.40766 39039 ft 426 kts 26°
2026-05-09 14:54 38.33739 -120.36586 39049 ft 426 kts 26°
2026-05-09 14:54 38.38654 -120.32397 39065 ft 429 kts 26°
2026-05-09 14:55 38.43634 -120.28162 39091 ft 431 kts 26°
2026-05-09 14:55 38.48614 -120.23900 39097 ft 430 kts 26°
2026-05-09 14:56 38.53585 -120.19655 39092 ft 428 kts 26°
2026-05-09 14:56 38.58495 -120.15443 39120 ft 426 kts 26°
2026-05-09 14:57 38.63419 -120.11224 39145 ft 427 kts 26°
2026-05-09 14:57 38.68366 -120.06971 39128 ft 428 kts 26°
2026-05-09 14:58 38.73316 -120.02705 39156 ft 429 kts 26°
2026-05-09 14:58 38.78271 -119.98434 39274 ft 429 kts 26°
2026-05-09 14:59 38.83182 -119.94191 39284 ft 428 kts 26°
2026-05-09 14:59 38.88120 -119.89921 39277 ft 427 kts 26°
2026-05-09 15:00 38.93044 -119.85645 39235 ft 426 kts 26°
2026-05-09 15:00 38.97971 -119.81371 39241 ft 430 kts 26°
2026-05-09 15:01 39.02995 -119.77006 39250 ft 441 kts 26°
2026-05-09 15:01 39.04681 -119.75534 39247 ft 444 kts 26°
2026-05-09 15:02 39.09905 -119.71119 39262 ft 453 kts 25°
2026-05-09 15:02 39.16061 -119.65954 39266 ft 453 kts 26°
2026-05-09 15:03 39.20457 -119.62229 39262 ft 449 kts 25°
2026-05-09 15:03 39.25667 -119.57854 39228 ft 447 kts 25°
2026-05-09 15:04 39.30850 -119.53455 39217 ft 449 kts 25°
2026-05-09 15:06 39.51782 -119.35665 39096 ft 448 kts 25°
2026-05-09 15:06 39.56997 -119.31221 39072 ft 448 kts 25°
2026-05-09 15:07 39.62189 -119.26774 39070 ft 447 kts 25°
2026-05-09 15:07 39.67377 -119.22332 39064 ft 447 kts 25°
2026-05-09 15:08 39.72540 -119.17897 39065 ft 447 kts 25°
2026-05-09 15:08 39.80305 -119.11133 39061 ft 449 kts 27°
2026-05-09 15:10 40.00735 -118.92508 39103 ft 449 kts 27°
2026-05-09 15:11 40.05865 -118.87811 39136 ft 451 kts 27°
2026-05-09 15:11 40.10991 -118.83109 39070 ft 452 kts 27°
2026-05-09 15:12 40.16139 -118.78375 39071 ft 453 kts 27°
2026-05-09 15:12 40.21281 -118.73638 39071 ft 450 kts 27°
2026-05-09 15:13 40.26393 -118.68923 39077 ft 448 kts 27°
2026-05-09 15:13 40.31474 -118.64230 39098 ft 451 kts 27°
2026-05-09 15:14 40.36640 -118.59444 39089 ft 457 kts 27°
2026-05-09 15:14 40.41834 -118.54621 39090 ft 457 kts 27°
2026-05-09 15:15 40.46999 -118.49819 39094 ft 454 kts 27°
2026-05-09 15:15 40.52144 -118.45026 39090 ft 452 kts 27°
2026-05-09 15:16 40.57271 -118.40243 39110 ft 452 kts 27°
2026-05-09 15:16 40.62389 -118.35459 39096 ft 456 kts 27°
2026-05-09 15:17 40.67586 -118.30589 39109 ft 460 kts 27°
2026-05-09 15:17 40.72812 -118.25681 39109 ft 460 kts 27°
2026-05-09 15:18 40.78020 -118.20783 39111 ft 458 kts 27°
2026-05-09 15:18 40.83201 -118.15895 39116 ft 457 kts 28°
2026-05-09 15:19 40.88336 -118.11054 39174 ft 455 kts 27°
2026-05-09 15:19 40.93499 -118.06168 39198 ft 457 kts 28°
2026-05-09 15:20 41.01211 -117.98593 39197 ft 468 kts 34°
2026-05-09 15:21 41.06047 -117.92852 39193 ft 468 kts 34°
2026-05-09 15:21 41.10908 -117.87125 39177 ft 467 kts 34°
2026-05-09 15:22 41.15737 -117.81385 39159 ft 465 kts 34°
2026-05-09 15:22 41.20558 -117.75669 39133 ft 464 kts 34°
2026-05-09 15:23 41.25371 -117.69936 39112 ft 465 kts 34°
2026-05-09 15:23 41.30168 -117.64217 39115 ft 466 kts 34°
2026-05-09 15:24 41.35003 -117.58437 39120 ft 468 kts 34°
2026-05-09 15:24 41.39849 -117.52633 39121 ft 469 kts 34°
2026-05-09 15:25 41.44681 -117.46832 39137 ft 462 kts 34°
2026-05-09 15:25 41.47020 -117.44008 39122 ft 446 kts 34°
2026-05-09 15:25 41.49298 -117.41267 39119 ft 440 kts 34°
2026-05-09 15:26 41.53907 -117.35744 39134 ft 451 kts 34°
2026-05-09 15:26 41.56252 -117.32905 39144 ft 458 kts 35°
2026-05-09 15:26 41.61036 -117.27117 39142 ft 469 kts 35°
2026-05-09 15:27 41.65873 -117.21258 39148 ft 472 kts 35°
2026-05-09 15:27 41.70714 -117.15377 39145 ft 468 kts 35°
2026-05-09 15:28 41.75530 -117.09522 39140 ft 466 kts 36°
2026-05-09 15:28 41.80307 -117.03699 39146 ft 467 kts 36°
2026-05-09 15:29 41.85283 -116.98153 39166 ft 462 kts 28°
2026-05-09 15:29 41.90553 -116.93170 39164 ft 465 kts 29°
2026-05-09 15:30 41.95829 -116.88149 39163 ft 463 kts 28°
2026-05-09 15:30 42.01079 -116.83163 39165 ft 461 kts 28°
2026-05-09 15:31 42.06298 -116.78183 39160 ft 459 kts 29°
2026-05-09 15:31 42.11536 -116.73184 39166 ft 463 kts 29°
2026-05-09 15:32 42.16770 -116.68171 39183 ft 465 kts 29°
2026-05-09 15:32 42.22031 -116.63122 39161 ft 462 kts 29°
2026-05-09 15:33 42.27250 -116.58110 39164 ft 459 kts 29°
2026-05-09 15:33 42.32455 -116.53093 39162 ft 461 kts 29°
2026-05-09 15:34 42.37694 -116.48037 39168 ft 463 kts 29°
2026-05-09 15:34 42.42958 -116.42944 39167 ft 465 kts 29°
2026-05-09 15:35 42.48175 -116.37888 39156 ft 463 kts 30°
2026-05-09 15:35 42.53403 -116.32808 39154 ft 461 kts 30°
2026-05-09 15:36 42.58619 -116.27732 39148 ft 460 kts 30°
2026-05-09 15:36 42.63831 -116.22647 39160 ft 461 kts 30°
2026-05-09 15:37 42.69032 -116.17564 39143 ft 464 kts 30°
2026-05-09 15:37 42.74276 -116.12427 39144 ft 465 kts 30°
2026-05-09 15:38 42.79531 -116.07266 39145 ft 464 kts 30°
2026-05-09 15:38 42.84762 -116.02122 39142 ft 463 kts 30°
2026-05-09 15:39 42.89942 -115.97015 39175 ft 462 kts 30°
2026-05-09 15:39 42.95164 -115.91856 39197 ft 463 kts 30°
2026-05-09 15:40 43.00387 -115.86684 39199 ft 464 kts 30°
2026-05-09 15:40 43.05636 -115.81485 39196 ft 466 kts 30°
2026-05-09 15:41 43.10873 -115.76321 39199 ft 467 kts 30°
2026-05-09 15:41 43.16156 -115.71078 39184 ft 468 kts 30°
2026-05-09 15:42 43.21428 -115.65846 39167 ft 467 kts 30°
2026-05-09 15:42 43.26673 -115.60623 39151 ft 465 kts 30°
2026-05-09 15:43 43.31898 -115.55412 39128 ft 463 kts 30°
2026-05-09 15:43 43.37084 -115.50231 39122 ft 465 kts 30°
2026-05-09 15:44 43.42322 -115.44984 39130 ft 466 kts 30°
2026-05-09 15:44 43.47573 -115.39713 39124 ft 467 kts 31°
2026-05-09 15:45 43.52830 -115.34421 39121 ft 468 kts 31°
2026-05-09 15:45 43.58080 -115.29077 39120 ft 469 kts 33°
2026-05-09 15:46 43.63219 -115.23513 39116 ft 468 kts 32°
2026-05-09 15:46 43.68317 -115.18000 39127 ft 468 kts 33°
2026-05-09 15:47 43.73443 -115.12437 39120 ft 468 kts 33°
2026-05-09 15:47 43.78577 -115.06856 39117 ft 468 kts 33°
2026-05-09 15:48 43.83703 -115.01278 39117 ft 469 kts 33°
2026-05-09 15:48 43.88834 -114.95657 39134 ft 471 kts 33°
2026-05-09 15:49 43.93963 -114.90055 39126 ft 471 kts 33°
2026-05-09 15:49 43.99099 -114.84411 39127 ft 470 kts 33°
2026-05-09 15:50 44.03364 -114.79728 39121 ft 469 kts 33°
2026-05-09 15:50 44.08484 -114.74082 39125 ft 469 kts 33°
2026-05-09 15:51 44.13594 -114.68443 39126 ft 468 kts 33°
2026-05-09 15:51 44.18691 -114.62804 39126 ft 467 kts 33°
2026-05-09 15:52 44.26320 -114.54329 39128 ft 472 kts 33°
2026-05-09 15:53 44.31464 -114.48613 39121 ft 473 kts 33°
2026-05-09 15:53 44.36594 -114.42879 39121 ft 471 kts 33°
2026-05-09 15:54 44.41710 -114.37164 39189 ft 470 kts 33°
2026-05-09 15:54 44.46818 -114.31436 39229 ft 470 kts 33°
2026-05-09 15:55 44.51928 -114.25698 39226 ft 471 kts 34°
2026-05-09 15:55 44.57039 -114.19940 39226 ft 472 kts 34°
2026-05-09 15:56 44.62167 -114.14155 39218 ft 473 kts 34°
2026-05-09 15:56 44.67273 -114.08380 39191 ft 475 kts 34°
2026-05-09 15:57 44.72458 -114.02655 39166 ft 472 kts 33°
2026-05-09 15:57 44.77635 -113.96970 39133 ft 472 kts 34°
2026-05-09 15:58 44.82781 -113.91245 39126 ft 471 kts 33°
2026-05-09 15:58 44.87931 -113.85554 39122 ft 470 kts 33°
2026-05-09 15:59 44.93055 -113.79844 39134 ft 468 kts 33°
2026-05-09 15:59 44.98137 -113.74186 39131 ft 467 kts 33°
2026-05-09 16:00 45.03255 -113.68470 39196 ft 469 kts 33°
2026-05-09 16:00 45.08390 -113.62719 39206 ft 472 kts 34°
2026-05-09 16:01 45.13514 -113.56967 39187 ft 467 kts 33°
2026-05-09 16:01 45.16024 -113.54141 39158 ft 454 kts 33°
2026-05-09 16:01 45.18498 -113.51357 38272 ft 455 kts 33°
2026-05-09 16:01 45.20964 -113.48584 37604 ft 448 kts 33°
2026-05-09 16:02 45.23363 -113.45876 36957 ft 442 kts 33°
2026-05-09 16:02 45.28110 -113.40509 35716 ft 431 kts 33°
2026-05-09 16:02 45.30438 -113.37876 35116 ft 425 kts 33°
2026-05-09 16:03 45.32735 -113.35273 34526 ft 419 kts 33°
2026-05-09 16:03 45.34998 -113.32705 33912 ft 413 kts 33°
2026-05-09 16:03 45.37236 -113.30164 33242 ft 408 kts 34°
2026-05-09 16:03 45.39438 -113.27660 32581 ft 403 kts 34°
2026-05-09 16:04 45.41612 -113.25188 31934 ft 397 kts 34°
2026-05-09 16:04 45.43758 -113.22745 31307 ft 393 kts 34°
2026-05-09 16:04 45.45878 -113.20328 30697 ft 388 kts 34°
2026-05-09 16:04 45.47957 -113.17955 30080 ft 384 kts 34°
2026-05-09 16:05 45.50030 -113.15591 29392 ft 379 kts 34°
2026-05-09 16:05 45.52079 -113.13250 28954 ft 371 kts 34°
2026-05-09 16:05 45.56053 -113.08694 28955 ft 371 kts 34°
2026-05-09 16:06 45.60081 -113.03964 28942 ft 377 kts 41°
2026-05-09 16:06 45.63413 -112.98259 28029 ft 373 kts 47°
2026-05-09 16:07 45.65034 -112.95378 27396 ft 368 kts 45°
2026-05-09 16:07 45.66675 -112.92595 26803 ft 363 kts 45°
2026-05-09 16:07 45.68300 -112.89848 26257 ft 359 kts 46°
2026-05-09 16:07 45.69865 -112.87144 25684 ft 356 kts 47°
2026-05-09 16:08 45.71430 -112.84411 25070 ft 354 kts 46°
2026-05-09 16:08 45.72994 -112.81711 24502 ft 351 kts 46°
2026-05-09 16:08 45.74557 -112.79023 23953 ft 349 kts 46°
2026-05-09 16:08 45.76100 -112.76355 23324 ft 347 kts 46°
2026-05-09 16:09 45.77634 -112.73690 22689 ft 345 kts 46°
2026-05-09 16:09 45.79154 -112.71052 22057 ft 342 kts 46°
2026-05-09 16:09 45.80665 -112.68432 21449 ft 340 kts 46°
2026-05-09 16:09 45.82164 -112.65829 20871 ft 338 kts 46°
2026-05-09 16:10 45.83660 -112.63226 20307 ft 336 kts 46°
2026-05-09 16:10 45.85141 -112.60651 19752 ft 334 kts 47°
2026-05-09 16:10 45.86606 -112.58100 19274 ft 329 kts 47°
2026-05-09 16:10 45.88037 -112.55600 18738 ft 328 kts 47°
2026-05-09 16:11 45.89481 -112.53081 18196 ft 325 kts 47°
2026-05-09 16:11 45.90913 -112.50580 17655 ft 323 kts 47°
2026-05-09 16:11 45.92332 -112.48100 17202 ft 320 kts 47°
2026-05-09 16:11 45.93742 -112.45632 16664 ft 317 kts 47°
2026-05-09 16:12 45.95132 -112.43199 16123 ft 314 kts 47°
2026-05-09 16:12 45.96515 -112.40775 15584 ft 312 kts 47°
2026-05-09 16:12 45.97886 -112.38365 15079 ft 309 kts 47°
2026-05-09 16:12 45.99227 -112.36012 14601 ft 307 kts 47°
2026-05-09 16:13 46.00577 -112.33645 14109 ft 305 kts 48°
2026-05-09 16:13 46.01913 -112.31291 13583 ft 302 kts 47°
2026-05-09 16:13 46.03243 -112.28949 13020 ft 301 kts 46°
2026-05-09 16:13 46.04563 -112.26630 12525 ft 298 kts 46°
2026-05-09 16:14 46.05872 -112.24316 12020 ft 296 kts 47°
2026-05-09 16:14 46.07172 -112.22019 11545 ft 293 kts 47°
2026-05-09 16:14 46.08457 -112.19755 11042 ft 291 kts 47°
2026-05-09 16:14 46.09729 -112.17499 10541 ft 290 kts 47°
2026-05-09 16:15 46.10987 -112.15268 10322 ft 279 kts 46°
2026-05-09 16:15 46.12192 -112.13133 10297 ft 272 kts 47°
2026-05-09 16:15 46.13390 -112.11026 10292 ft 280 kts 46°
2026-05-09 16:15 46.14653 -112.08796 10299 ft 291 kts 46°
2026-05-09 16:16 46.15929 -112.06520 10296 ft 292 kts 48°
2026-05-09 16:16 46.17201 -112.04250 10297 ft 291 kts 47°
2026-05-09 16:16 46.18481 -112.01986 10283 ft 290 kts 47°
2026-05-09 16:16 46.19742 -111.99741 10287 ft 284 kts 48°
2026-05-09 16:17 46.20968 -111.97545 10278 ft 278 kts 48°
2026-05-09 16:17 46.22182 -111.95387 10276 ft 275 kts 48°
2026-05-09 16:17 46.23388 -111.93249 10278 ft 274 kts 47°
2026-05-09 16:17 46.24595 -111.91093 10280 ft 278 kts 48°
2026-05-09 16:18 46.25792 -111.88944 10277 ft 280 kts 48°
2026-05-09 16:18 46.27019 -111.86757 10281 ft 281 kts 47°
2026-05-09 16:18 46.28243 -111.84567 10289 ft 280 kts 49°
2026-05-09 16:18 46.29468 -111.82372 10301 ft 281 kts 48°
2026-05-09 16:19 46.30699 -111.80169 10304 ft 282 kts 47°
2026-05-09 16:19 46.31927 -111.77966 10305 ft 281 kts 48°
2026-05-09 16:19 46.33156 -111.75762 10311 ft 279 kts 47°
2026-05-09 16:19 46.34362 -111.73599 10308 ft 275 kts 47°
2026-05-09 16:20 46.35554 -111.71447 10305 ft 274 kts 49°
2026-05-09 16:20 46.36754 -111.69294 10305 ft 274 kts 49°
2026-05-09 16:20 46.37960 -111.67130 10311 ft 277 kts 49°
2026-05-09 16:20 46.39155 -111.64972 10310 ft 279 kts 49°
2026-05-09 16:21 46.40372 -111.62773 10310 ft 279 kts 49°
2026-05-09 16:21 46.41596 -111.60654 9971 ft 274 kts 43°
2026-05-09 16:21 46.43082 -111.59014 9788 ft 260 kts 28°
2026-05-09 16:21 46.44675 -111.57984 9776 ft 243 kts 15°
2026-05-09 16:22 46.46280 -111.57532 9770 ft 228 kts
2026-05-09 16:22 46.47824 -111.57574 9644 ft 220 kts 351°
2026-05-09 16:22 46.49311 -111.58072 9386 ft 219 kts 340°
2026-05-09 16:22 46.50670 -111.58965 9218 ft 215 kts 330°
2026-05-09 16:23 46.51994 -111.60022 8935 ft 218 kts 330°
2026-05-09 16:23 46.53316 -111.61079 8712 ft 216 kts 327°
2026-05-09 16:23 46.54434 -111.62534 8455 ft 214 kts 309°
2026-05-09 16:23 46.55211 -111.64368 8073 ft 214 kts 293°
2026-05-09 16:24 46.55621 -111.66443 7750 ft 213 kts 283°
2026-05-09 16:24 46.55940 -111.68515 7474 ft 208 kts 283°
2026-05-09 16:24 46.56258 -111.70493 7423 ft 193 kts 283°
2026-05-09 16:24 46.56558 -111.72364 7290 ft 188 kts 283°
2026-05-09 16:25 46.56849 -111.74224 7047 ft 187 kts 282°
2026-05-09 16:25 46.57125 -111.76001 6971 ft 176 kts 283°
2026-05-09 16:25 46.57407 -111.77776 6619 ft 181 kts 282°
2026-05-09 16:25 46.57647 -111.79307 6481 ft 136 kts 282°
2026-05-09 16:26 46.57866 -111.80690 5634 ft 143 kts 282°
2026-05-09 16:26 46.58066 -111.81959 5444 ft 117 kts 282°
2026-05-09 16:26 46.58241 -111.83126 5325 ft 122 kts 282°
2026-05-09 16:26 46.58451 -111.84414 5428 ft 137 kts 284°
2026-05-09 16:27 46.58666 -111.85799 5478 ft 149 kts 283°
2026-05-09 16:27 46.58900 -111.87298 5169 ft 148 kts 282°
2026-05-09 16:27 46.59108 -111.88633 5078 ft 122 kts 282°
2026-05-09 16:27 46.59305 -111.89853 4965 ft 133 kts 284°
2026-05-09 16:28 46.59534 -111.91168 5179 ft 140 kts 283°
2026-05-09 16:28 46.59736 -111.92567 5120 ft 134 kts 282°
2026-05-09 16:28 46.59928 -111.93860 4764 ft 127 kts 283°
2026-05-09 16:28 46.60113 -111.95073 4324 ft 118 kts 284°
2026-05-09 16:29 46.60299 -111.96242 3905 ft 119 kts 284°
2026-05-09 16:29 46.60468 -111.97320 3843 ft 97 kts 283°
2026-05-09 16:29 46.60592 -111.98150 3843 ft 72 kts 283°
2026-05-09 16:29 46.60673 -111.98686 3850 ft 35 kts 282°
2026-05-09 16:30 46.60719 -111.98977 3845 ft 25 kts 283°
2026-05-09 16:30 46.60737 -111.99054 3848 ft 0 kts 315°
2026-05-09 16:30 46.60750 -111.99070 3852 ft 6 kts 332°
2026-05-09 16:30 46.60757 -111.99069 3847 ft 2 kts 16°
2026-05-09 16:31 46.60788 -111.98998 3853 ft 13 kts 65°
2026-05-09 16:31 46.60830 -111.98853 3852 ft 18 kts 65°
2026-05-09 16:31 46.60889 -111.98892 3843 ft 13 kts 289°
2026-05-09 16:31 46.60940 -111.99016 3843 ft 16 kts 324°
2026-05-09 16:32 46.60959 -111.99020 3845 ft 4 kts 11°
2026-05-09 16:32 46.60965 -111.99018 3850 ft 0 kts 10°